| time (UTC) | temp C | wind direction | speed KPH | gust KPH | rain 1hr cm | rain 24hr cm | rain mn cm | humidity % | barometer mb |
| 20260905032023 | 18 | 0.0 | 0.0 | 0.00 | 0.00 | 0.00 | 76 | 1008.7 | |
| 20260905031027 | 18 | 0.0 | 0.0 | 0.00 | 0.00 | 0.00 | 75 | 1008.6 | |
| 20260905030030 | 18 | 0.0 | 0.0 | 0.00 | 0.00 | 0.00 | 75 | 1008.7 | |
| 20260905025015 | 18 | 0.0 | 0.0 | 0.00 | 0.00 | 0.00 | 74 | 1008.7 | |
| 20260905024019 | 18 | 0.0 | 0.0 | 0.00 | 0.00 | 0.00 | 74 | 1008.8 | |
| 20260905023022 | 18 | 0.0 | 0.0 | 0.00 | 0.00 | 0.00 | 73 | 1008.8 | |
| 20260905022045 | 18 | 0.0 | 0.0 | 0.00 | 0.00 | 0.00 | 73 | 1008.8 | |
| 20260905021028 | 18 | 0.0 | 0.0 | 0.00 | 0.00 | 0.00 | 73 | 1009.1 | |
| 20260905020032 | 18 | 0.0 | 0.0 | 0.00 | 0.00 | 0.00 | 74 | 1009.0 | |
| 20260905015017 | 18 | 0.0 | 0.0 | 0.00 | 0.00 | 0.00 | 74 | 1009.0 | |
| 20260905014020 | 18 | 0.0 | 0.0 | 0.00 | 0.00 | 0.00 | 72 | 1009.1 | |
| 20260905013044 | 18 | 0.0 | 0.0 | 0.00 | 0.00 | 0.00 | 72 | 1009.2 | |
| 20260905012027 | 18 | 0.0 | 0.0 | 0.00 | 0.00 | 0.00 | 72 | 1009.2 | |
| 20260905011030 | 19 | 0.0 | 0.0 | 0.00 | 0.00 | 0.00 | 72 | 1009.2 | |
| 20260905010015 | 19 | 0.0 | 0.0 | 0.00 | 0.00 | 0.00 | 73 | 1009.1 | |
| 20260905005019 | 20 | 0.0 | 0.0 | 0.00 | 0.00 | 0.00 | 73 | 1009.0 | |
| 20260905004022 | 20 | 0.0 | 0.0 | 0.00 | 0.00 | 0.00 | 73 | 1009.0 | |
| 20260905003019 | 20 | 0.0 | 0.0 | 0.00 | 0.00 | 0.00 | 72 | 1009.1 | |
| 20260905002017 | 20 | 0.0 | 0.0 | 0.00 | 0.00 | 0.00 | 72 | 1009.1 | |
| 20260905001032 | 20 | 0.0 | 0.0 | 0.00 | 0.00 | 0.00 | 73 | 1008.9 | |
| 20260905000037 | 21 | 0.0 | 0.0 | 0.00 | 0.00 | 0.00 | 67 | 1008.7 | |
| 20260904235020 | 21 | 0.0 | 0.0 | 0.00 | 0.00 | 0.00 | 66 | 1008.4 | |
| 20260904234024 | 21 | 0.0 | 0.0 | 0.00 | 0.00 | 0.00 | 66 | 1008.4 | |
| 20260904233027 | 22 | 0.0 | 0.0 | 0.00 | 0.00 | 0.00 | 64 | 1008.4 | |
| 20260904232050 | 22 | 0.0 | 0.0 | 0.00 | 0.00 | 0.00 | 63 | 1008.4 | |
| 20260904231016 | 23 | 0.0 | 0.0 | 0.00 | 0.00 | 0.00 | 63 | 1008.3 | |
| 20260904230019 | 23 | 0.0 | 0.0 | 0.00 | 0.00 | 0.00 | 62 | 1008.4 | |
| 20260904225022 | 23 | 0.0 | 0.0 | 0.00 | 0.00 | 0.00 | 63 | 1008.4 | |
| 20260904224045 | 24 | 0.0 | 0.0 | 0.00 | 0.00 | 0.00 | 60 | 1008.2 | |
| 20260904223029 | 25 | 0.0 | 0.0 | 0.00 | 0.00 | 0.00 | 59 | 1008.1 | |
| 20260904222052 | 26 | 0.0 | 0.0 | 0.00 | 0.00 | 0.00 | 56 | 1007.9 | |
| 20260904221017 | 26 | 0.0 | 0.0 | 0.00 | 0.00 | 0.00 | 51 | 1008.0 | |
| 20260904220021 | 26 | 0.0 | 0.0 | 0.00 | 0.00 | 0.00 | 50 | 1007.9 | |
| 20260904215024 | 26 | 0.0 | 0.0 | 0.00 | 0.00 | 0.00 | 48 | 1007.9 | |
| 20260904214027 | 28 | 0.0 | 3.2 | 0.00 | 0.00 | 0.00 | 45 | 1008.1 | |
| 20260904213031 | 28 | 338 | 0.0 | 1.6 | 0.00 | 0.00 | 0.00 | 46 | 1008.1 |
| 20260904212016 | 28 | 0.0 | 3.2 | 0.00 | 0.00 | 0.00 | 47 | 1008.1 | |
| 20260904211019 | 28 | 0.0 | 3.2 | 0.00 | 0.00 | 0.00 | 46 | 1008.1 | |
| 20260904210022 | 29 | 217 | 1.6 | 9.7 | 0.00 | 0.00 | 0.00 | 44 | 1007.9 |
| 20260904205019 | 29 | 0.0 | 0.0 | 0.00 | 0.00 | 0.00 | 46 | 1007.9 | |
| 20260904204017 | 28 | 0.0 | 0.0 | 0.00 | 0.00 | 0.00 | 48 | 1008.0 | |
| 20260904203032 | 27 | 0.0 | 0.0 | 0.00 | 0.00 | 0.00 | 46 | 1008.1 | |
| 20260904202017 | 27 | 0.0 | 0.0 | 0.00 | 0.00 | 0.00 | 45 | 1008.1 | |
| 20260904201021 | 28 | 210 | 1.6 | 4.8 | 0.00 | 0.00 | 0.00 | 47 | 1007.8 |
| 20260904200024 | 28 | 0.0 | 1.6 | 0.00 | 0.00 | 0.00 | 47 | 1008.0 | |
| 20260904195027 | 28 | 0.0 | 0.0 | 0.00 | 0.00 | 0.00 | 49 | 1007.7 | |
| 20260904194030 | 29 | 0.0 | 0.0 | 0.00 | 0.00 | 0.00 | 46 | 1007.7 | |
| 20260904193016 | 30 | 0.0 | 8.0 | 0.00 | 0.00 | 0.00 | 42 | 1007.7 | |
| 20260904192039 | 31 | 90 | 1.6 | 8.0 | 0.00 | 0.00 | 0.00 | 41 | 1007.7 |
| 20260904191022 | 31 | 338 | 0.0 | 8.0 | 0.00 | 0.00 | 0.00 | 41 | 1007.8 |
| 20260904190026 | 30 | 203 | 3.2 | 16.1 | 0.00 | 0.00 | 0.00 | 41 | 1008.0 |
| 20260904185029 | 30 | 0.0 | 1.6 | 0.00 | 0.00 | 0.00 | 42 | 1008.0 | |
| 20260904184052 | 29 | 180 | 0.0 | 4.8 | 0.00 | 0.00 | 0.00 | 44 | 1008.0 |
| 20260904183037 | 30 | 204 | 3.2 | 9.7 | 0.00 | 0.00 | 0.00 | 43 | 1008.0 |
| 20260904182041 | 30 | 228 | 1.6 | 6.4 | 0.00 | 0.00 | 0.00 | 43 | 1007.9 |
| 20260904181024 | 30 | 203 | 1.6 | 9.7 | 0.00 | 0.00 | 0.00 | 45 | 1008.0 |
| 20260904180027 | 29 | 270 | 0.0 | 3.2 | 0.00 | 0.00 | 0.00 | 46 | 1008.1 |
| 20260904175031 | 30 | 158 | 1.6 | 9.7 | 0.00 | 0.00 | 0.00 | 46 | 1008.0 |
| 20260904174036 | 30 | 0.0 | 6.4 | 0.00 | 0.00 | 0.00 | 50 | 1008.0 | |
| 20260904173019 | 29 | 248 | 0.0 | 3.2 | 0.00 | 0.00 | 0.00 | 51 | 1008.2 |
| 20260904172022 | 27 | 0.0 | 0.0 | 0.00 | 0.00 | 0.00 | 55 | 1008.4 | |
| 20260904171040 | 28 | 203 | 0.0 | 1.6 | 0.00 | 0.00 | 0.00 | 51 | 1008.4 |
| 20260904170017 | 28 | 126 | 1.6 | 8.0 | 0.00 | 0.00 | 0.00 | 51 | 1008.5 |
| 20260904165032 | 28 | 0.0 | 0.0 | 0.00 | 0.00 | 0.00 | 53 | 1008.4 | |
| 20260904164018 | 28 | 248 | 0.0 | 1.6 | 0.00 | 0.00 | 0.00 | 52 | 1008.5 |
| 20260904163021 | 27 | 269 | 1.6 | 8.0 | 0.00 | 0.00 | 0.00 | 53 | 1008.6 |
| 20260904162024 | 27 | 281 | 3.2 | 9.7 | 0.00 | 0.00 | 0.00 | 54 | 1008.6 |
| 20260904161028 | 27 | 1.6 | 3.2 | 0.00 | 0.00 | 0.00 | 54 | 1008.8 | |
| 20260904160051 | 27 | 16 | 1.6 | 12.9 | 0.00 | 0.00 | 0.00 | 56 | 1008.8 |
| 20260904155016 | 27 | 0.0 | 1.6 | 0.00 | 0.00 | 0.00 | 57 | 1009.0 | |
| 20260904154019 | 26 | 236 | 1.6 | 9.7 | 0.00 | 0.00 | 0.00 | 60 | 1009.0 |
| 20260904153023 | 26 | 0.0 | 3.2 | 0.00 | 0.00 | 0.00 | 62 | 1009.0 | |
| 20260904152026 | 26 | 113 | 0.0 | 3.2 | 0.00 | 0.00 | 0.00 | 61 | 1009.0 |
| 20260904151029 | 26 | 0.0 | 0.0 | 0.00 | 0.00 | 0.00 | 63 | 1009.1 | |
| 20260904150033 | 26 | 288 | 0.0 | 4.8 | 0.00 | 0.00 | 0.00 | 65 | 1009.2 |
| 20260904145038 | 25 | 0.0 | 0.0 | 0.00 | 0.00 | 0.00 | 67 | 1009.4 | |
| 20260904144021 | 25 | 0.0 | 0.0 | 0.00 | 0.00 | 0.00 | 69 | 1009.4 | |
| 20260904143024 | 24 | 225 | 1.6 | 8.0 | 0.00 | 0.00 | 0.00 | 70 | 1009.4 |
| 20260904142028 | 23 | 0.0 | 6.4 | 0.00 | 0.00 | 0.00 | 72 | 1009.5 | |
| 20260904141031 | 23 | 0.0 | 0.0 | 0.00 | 0.00 | 0.00 | 74 | 1009.6 | |
| 20260904140036 | 22 | 203 | 0.0 | 6.4 | 0.00 | 0.00 | 0.00 | 75 | 1009.7 |
| 20260904135019 | 22 | 0.0 | 0.0 | 0.00 | 0.00 | 0.00 | 80 | 1009.5 | |
| 20260904134023 | 21 | 0.0 | 0.0 | 0.00 | 0.00 | 0.00 | 82 | 1009.6 | |
| 20260904133040 | 20 | 0.0 | 0.0 | 0.00 | 0.00 | 0.00 | 89 | 1009.7 | |
| 20260904132038 | 20 | 0.0 | 0.0 | 0.00 | 0.00 | 0.00 | 91 | 1009.6 | |
| 20260904131033 | 20 | 338 | 0.0 | 1.6 | 0.00 | 0.00 | 0.00 | 93 | 1009.7 |
| 20260904130018 | 20 | 0.0 | 0.0 | 0.00 | 0.00 | 0.00 | 95 | 1009.8 | |
| 20260904125041 | 20 | 0.0 | 0.0 | 0.00 | 0.00 | 0.00 | 96 | 1009.6 | |
| 20260904124024 | 19 | 0.0 | 0.0 | 0.00 | 0.00 | 0.00 | 98 | 1009.7 | |
| 20260904123028 | 19 | 0.0 | 0.0 | 0.00 | 0.00 | 0.00 | 99 | 1009.6 | |
| 20260904122031 | 19 | 0.0 | 0.0 | 0.00 | 0.00 | 0.00 | 99 | 1009.6 | |
| 20260904121016 | 18 | 0.0 | 0.0 | 0.00 | 0.00 | 0.00 | 99 | 1009.5 | |
| 20260904120020 | 18 | 0.0 | 0.0 | 0.00 | 0.00 | 0.00 | 99 | 1009.6 | |
| 20260904115023 | 18 | 0.0 | 0.0 | 0.00 | 0.00 | 0.00 | 99 | 1009.6 | |
| 20260904114046 | 18 | 0.0 | 0.0 | 0.00 | 0.00 | 0.00 | 99 | 1009.7 | |
| 20260904113030 | 18 | 0.0 | 0.0 | 0.00 | 0.00 | 0.00 | 99 | 1009.6 | |
| 20260904112015 | 18 | 0.0 | 0.0 | 0.00 | 0.00 | 0.00 | 99 | 1009.6 | |
| 20260904111018 | 18 | 0.0 | 0.0 | 0.00 | 0.00 | 0.00 | 99 | 1009.5 | |
| 20260904110022 | 18 | 0.0 | 0.0 | 0.00 | 0.00 | 0.00 | 99 | 1009.4 | |
| 20260904105025 | 18 | 0.0 | 0.0 | 0.00 | 0.00 | 0.00 | 99 | 1009.2 | |
| 20260904104028 | 18 | 0.0 | 0.0 | 0.00 | 0.00 | 0.00 | 99 | 1009.4 | |
| 20260904103052 | 18 | 0.0 | 0.0 | 0.00 | 0.00 | 0.00 | 99 | 1009.4 | |
| 20260904102017 | 18 | 0.0 | 0.0 | 0.00 | 0.00 | 0.00 | 99 | 1009.5 | |
| 20260904101020 | 18 | 0.0 | 0.0 | 0.00 | 0.00 | 0.00 | 99 | 1009.3 | |
| 20260904100023 | 18 | 0.0 | 0.0 | 0.00 | 0.00 | 0.00 | 99 | 1009.3 | |
| 20260904095020 | 18 | 0.0 | 0.0 | 0.00 | 0.00 | 0.00 | 99 | 1009.4 | |
| 20260904094018 | 18 | 0.0 | 0.0 | 0.00 | 0.00 | 0.00 | 99 | 1009.4 | |
| 20260904093015 | 18 | 0.0 | 0.0 | 0.00 | 0.00 | 0.00 | 99 | 1009.4 | |
| 20260904092018 | 18 | 0.0 | 0.0 | 0.00 | 0.00 | 0.00 | 99 | 1009.3 | |
| 20260904091022 | 18 | 0.0 | 0.0 | 0.00 | 0.00 | 0.00 | 99 | 1009.1 | |
| 20260904090025 | 18 | 0.0 | 0.0 | 0.00 | 0.00 | 0.00 | 99 | 1009.3 | |
| 20260904085028 | 18 | 0.0 | 0.0 | 0.00 | 0.00 | 0.00 | 98 | 1009.4 | |
| 20260904084031 | 18 | 0.0 | 0.0 | 0.00 | 0.00 | 0.00 | 98 | 1009.3 | |
| 20260904083017 | 18 | 0.0 | 0.0 | 0.00 | 0.00 | 0.00 | 98 | 1009.4 | |
| 20260904082040 | 18 | 0.0 | 0.0 | 0.00 | 0.00 | 0.00 | 98 | 1009.4 | |
| 20260904081023 | 18 | 0.0 | 0.0 | 0.00 | 0.00 | 0.00 | 98 | 1009.4 | |
| 20260904080047 | 18 | 0.0 | 0.0 | 0.00 | 0.00 | 0.00 | 98 | 1009.4 | |
| 20260904075030 | 18 | 0.0 | 0.0 | 0.00 | 0.00 | 0.00 | 98 | 1009.4 | |
| 20260904074016 | 18 | 0.0 | 0.0 | 0.00 | 0.00 | 0.00 | 97 | 1009.5 | |
| 20260904073019 | 18 | 0.0 | 0.0 | 0.00 | 0.00 | 0.00 | 97 | 1009.7 | |
| 20260904072022 | 18 | 0.0 | 0.0 | 0.00 | 0.00 | 0.00 | 97 | 1009.8 | |
| 20260904071025 | 18 | 0.0 | 0.0 | 0.00 | 0.00 | 0.00 | 96 | 1009.6 | |
| 20260904070049 | 18 | 0.0 | 0.0 | 0.00 | 0.00 | 0.00 | 96 | 1009.8 | |
| 20260904065032 | 18 | 0.0 | 0.0 | 0.00 | 0.00 | 0.00 | 96 | 1009.8 | |
| 20260904064017 | 18 | 0.0 | 0.0 | 0.00 | 0.00 | 0.00 | 96 | 1009.9 | |
| 20260904063020 | 18 | 0.0 | 0.0 | 0.00 | 0.00 | 0.00 | 96 | 1010.0 | |
| 20260904062024 | 18 | 0.0 | 0.0 | 0.00 | 0.00 | 0.00 | 96 | 1010.2 | |
| 20260904061021 | 18 | 0.0 | 0.0 | 0.00 | 0.00 | 0.00 | 96 | 1010.5 | |
| 20260904060018 | 18 | 0.0 | 0.0 | 0.00 | 0.00 | 0.00 | 95 | 1010.4 | |
| 20260904055016 | 18 | 0.0 | 0.0 | 0.00 | 0.00 | 0.00 | 95 | 1010.6 | |
| 20260904054019 | 18 | 0.0 | 0.0 | 0.00 | 0.00 | 0.00 | 95 | 1010.6 | |
| 20260904053022 | 18 | 0.0 | 0.0 | 0.00 | 0.00 | 0.00 | 95 | 1010.7 | |
| 20260904052026 | 18 | 0.0 | 0.0 | 0.00 | 0.00 | 0.00 | 95 | 1010.8 | |
| 20260904051029 | 18 | 0.0 | 0.0 | 0.00 | 0.00 | 0.00 | 95 | 1010.9 | |
| 20260904050032 | 18 | 0.0 | 0.0 | 0.00 | 0.00 | 0.00 | 95 | 1010.7 | |
| 20260904045017 | 18 | 0.0 | 0.0 | 0.00 | 0.00 | 0.00 | 94 | 1010.8 | |
| 20260904044041 | 18 | 0.0 | 0.0 | 0.00 | 0.00 | 0.00 | 94 | 1011.0 | |
| 20260904043024 | 18 | 0.0 | 0.0 | 0.00 | 0.00 | 0.00 | 94 | 1011.1 | |
| 20260904042027 | 18 | 0.0 | 0.0 | 0.00 | 0.00 | 0.00 | 93 | 1011.1 | |
| 20260904041031 | 18 | 0.0 | 0.0 | 0.00 | 0.00 | 0.00 | 93 | 1011.2 | |
| 20260904040016 | 18 | 0.0 | 0.0 | 0.00 | 0.00 | 0.00 | 93 | 1011.5 | |
| 20260904035040 | 18 | 0.0 | 0.0 | 0.00 | 0.00 | 0.00 | 93 | 1011.4 | |
| 20260904034022 | 18 | 0.0 | 0.0 | 0.00 | 0.00 | 0.00 | 93 | 1011.4 | |
| 20260904033046 | 18 | 0.0 | 0.0 | 0.00 | 0.00 | 0.00 | 92 | 1011.5 |